• In United Kingdom
  • List of Countries
  • For 7 days
  • Water Temperature
  • Satellite Maps
  • Weather Map
  • Weather Widgets
  • user-avatar
    Login

    Hourly Weather Konstantyna

    Today, 13 December, Wednesday

    Time Temperature Precipitation Wind Pressure Humidity
    00:00 +10°C° 0 mm 1 mps 712 mmHg 82%
    01:00 +10°C° 0.1 mm 1 mps 712 mmHg 84%
    02:00 +10°C° 0.1 mm 1 mps 712 mmHg 87%
    03:00 +10°C° 0.1 mm 1 mps 713 mmHg 89%
    04:00 +9°C° 0 mm 1 mps 713 mmHg 91%
    05:00 +9°C° 0 mm 1 mps 713 mmHg 92%
    06:00 +9°C° 0 mm 1 mps 713 mmHg 94%
    07:00 +10°C° 0 mm 1 mps 714 mmHg 90%
    08:00 +10°C° 0 mm 1 mps 714 mmHg 86%
    09:00 +11°C° 0 mm 1 mps 715 mmHg 82%
    10:00 +12°C° 0.1 mm 2 mps 715 mmHg 77%
    11:00 +12°C° 0.1 mm 2 mps 715 mmHg 73%
    12:00 +13°C° 0.1 mm 2 mps 715 mmHg 68%
    13:00 +12°C° 0.1 mm 2 mps 715 mmHg 70%
    14:00 +12°C° 0.1 mm 2 mps 715 mmHg 71%
    15:00 +12°C° 0.1 mm 2 mps 715 mmHg 73%
    16:00 +10°C° 0 mm 2 mps 715 mmHg 78%
    17:00 +9°C° 0 mm 2 mps 715 mmHg 83%
    18:00 +9°C° 0 mm 1 mps 715 mmHg 89%
    19:00 +9°C° 0 mm 1 mps 716 mmHg 90%
    20:00 +8°C° 0 mm 1 mps 716 mmHg 92%
    21:00 +8°C° 0 mm 1 mps 716 mmHg 93%
    22:00 +7°C° 0 mm 1 mps 716 mmHg 93%
    23:00 +7°C° 0 mm 1 mps 716 mmHg 93%

    Tomorrow, 14 December, Thursday

    Time Temperature Precipitation Wind Pressure Humidity
    00:00 +7°C° 0 mm 1 mps 715 mmHg 93%
    01:00 +7°C° 0 mm 1 mps 715 mmHg 93%
    02:00 +7°C° 0 mm 1 mps 715 mmHg 92%
    03:00 +7°C° 0 mm 1 mps 714 mmHg 92%
    04:00 +7°C° 0 mm 1 mps 715 mmHg 91%
    05:00 +7°C° 0 mm 1 mps 715 mmHg 91%
    06:00 +6°C° 0 mm 1 mps 715 mmHg 90%
    07:00 +7°C° 0 mm 2 mps 715 mmHg 82%
    08:00 +8°C° 0 mm 2 mps 715 mmHg 74%
    09:00 +10°C° 0 mm 2 mps 715 mmHg 66%
    10:00 +13°C° 0 mm 2 mps 715 mmHg 56%
    11:00 +14°C° 0 mm 2 mps 715 mmHg 46%
    12:00 +16°C° 0 mm 2 mps 714 mmHg 36%
    13:00 +16°C° 0 mm 2 mps 714 mmHg 37%
    14:00 +16°C° 0 mm 2 mps 713 mmHg 38%
    15:00 +17°C° 0 mm 2 mps 713 mmHg 39%
    16:00 +15°C° 0 mm 2 mps 713 mmHg 44%
    17:00 +13°C° 0 mm 2 mps 713 mmHg 49%
    18:00 +10°C° 0 mm 2 mps 712 mmHg 54%
    19:00 +10°C° 0 mm 2 mps 712 mmHg 55%
    20:00 +9°C° 0 mm 2 mps 712 mmHg 56%
    21:00 +9°C° 0 mm 3 mps 712 mmHg 58%
    22:00 +9°C° 0 mm 3 mps 712 mmHg 59%
    23:00 +8°C° 0 mm 3 mps 711 mmHg 60%

    Day after tomorrow, 15 December, Friday

    Time Temperature Precipitation Wind Pressure Humidity
    00:00 +8°C° 0 mm 3 mps 711 mmHg 61%
    01:00 +8°C° 0 mm 3 mps 710 mmHg 60%
    02:00 +8°C° 0 mm 3 mps 710 mmHg 59%
    03:00 +8°C° 0 mm 3 mps 710 mmHg 58%
    04:00 +8°C° 0 mm 3 mps 709 mmHg 57%
    05:00 +8°C° 0 mm 3 mps 709 mmHg 56%
    06:00 +8°C° 0 mm 3 mps 709 mmHg 55%
    07:00 +9°C° 0 mm 3 mps 709 mmHg 52%
    08:00 +11°C° 0 mm 3 mps 709 mmHg 48%
    09:00 +13°C° 0 mm 3 mps 709 mmHg 45%
    10:00 +14°C° 0 mm 3 mps 709 mmHg 40%
    11:00 +17°C° 0 mm 4 mps 709 mmHg 35%
    12:00 +18°C° 0 mm 4 mps 708 mmHg 31%
    13:00 +18°C° 0 mm 4 mps 708 mmHg 33%
    14:00 +17°C° 0 mm 3 mps 707 mmHg 36%
    15:00 +17°C° 0 mm 2 mps 707 mmHg 39%
    16:00 +15°C° 0 mm 2 mps 707 mmHg 42%
    17:00 +14°C° 0 mm 1 mps 706 mmHg 46%
    18:00 +13°C° 0 mm 1 mps 706 mmHg 49%
    19:00 +12°C° 0 mm 1 mps 706 mmHg 49%
    20:00 +12°C° 0 mm 1 mps 706 mmHg 49%
    21:00 +12°C° 0 mm 1 mps 706 mmHg 50%
    22:00 +12°C° 0 mm 1 mps 706 mmHg 52%
    23:00 +12°C° 0 mm 1 mps 706 mmHg 54%

    16 December, Saturday

    Time Temperature Precipitation Wind Pressure Humidity
    00:00 +11°C° 0 mm 1 mps 705 mmHg 56%
    01:00 +11°C° 0.1 mm 1 mps 705 mmHg 59%
    02:00 +10°C° 0.1 mm 1 mps 704 mmHg 62%
    03:00 +10°C° 0.1 mm 1 mps 704 mmHg 65%
    04:00 +10°C° 0.2 mm 1 mps 704 mmHg 68%
    05:00 +9°C° 0.2 mm 1 mps 704 mmHg 71%
    06:00 +8°C° 0.2 mm 2 mps 704 mmHg 74%
    07:00 +9°C° 0.2 mm 2 mps 705 mmHg 73%
    08:00 +9°C° 0.2 mm 2 mps 705 mmHg 72%
    09:00 +10°C° 0.2 mm 2 mps 706 mmHg 71%
    10:00 +9°C° 0.8 mm 2 mps 706 mmHg 75%
    11:00 +9°C° 0.8 mm 3 mps 706 mmHg 79%
    12:00 +9°C° 0.8 mm 3 mps 706 mmHg 82%
    13:00 +9°C° 0.8 mm 3 mps 707 mmHg 85%
    14:00 +8°C° 0.8 mm 3 mps 707 mmHg 87%
    15:00 +8°C° 0.8 mm 3 mps 708 mmHg 90%
    16:00 +8°C° 0.2 mm 3 mps 708 mmHg 89%
    17:00 +8°C° 0.2 mm 3 mps 709 mmHg 88%
    18:00 +7°C° 0.2 mm 3 mps 709 mmHg 88%
    19:00 +7°C° 0 mm 2 mps 710 mmHg 88%
    20:00 +6°C° 0 mm 2 mps 710 mmHg 89%
    21:00 +6°C° 0 mm 1 mps 710 mmHg 89%
    22:00 +6°C° 0 mm 1 mps 710 mmHg 90%
    23:00 +6°C° 0 mm 1 mps 711 mmHg 91%

    17 December, Sunday

    Time Temperature Precipitation Wind Pressure Humidity
    00:00 +5°C° 0 mm 1 mps 711 mmHg 92%
    01:00 +5°C° 0 mm 1 mps 711 mmHg 91%
    02:00 +5°C° 0 mm 1 mps 711 mmHg 91%
    03:00 +5°C° 0 mm 1 mps 711 mmHg 91%
    04:00 +5°C° 0 mm 1 mps 711 mmHg 90%
    05:00 +4°C° 0 mm 1 mps 711 mmHg 89%
    06:00 +4°C° 0 mm 1 mps 711 mmHg 88%
    07:00 +6°C° 0 mm 1 mps 712 mmHg 82%
    08:00 +7°C° 0 mm 1 mps 712 mmHg 76%
    09:00 +8°C° 0 mm 1 mps 712 mmHg 70%
    10:00 +9°C° 0.1 mm 1 mps 712 mmHg 66%
    11:00 +9°C° 0.1 mm 1 mps 712 mmHg 63%
    12:00 +10°C° 0.1 mm 1 mps 712 mmHg 59%
    13:00 +9°C° 0.1 mm 2 mps 712 mmHg 61%
    14:00 +9°C° 0.1 mm 2 mps 712 mmHg 64%
    15:00 +9°C° 0.1 mm 2 mps 712 mmHg 67%
    16:00 +8°C° 0.2 mm 2 mps 712 mmHg 73%
    17:00 +7°C° 0.2 mm 2 mps 713 mmHg 79%
    18:00 +7°C° 0.2 mm 2 mps 713 mmHg 86%
    19:00 +7°C° 0.1 mm 2 mps 713 mmHg 87%
    20:00 +6°C° 0.1 mm 2 mps 714 mmHg 88%
    21:00 +6°C° 0.1 mm 2 mps 714 mmHg 89%
    22:00 +6°C° 0.1 mm 2 mps 714 mmHg 88%
    23:00 +5°C° 0.1 mm 3 mps 714 mmHg 87%

    18 December, Monday

    Time Temperature Precipitation Wind Pressure Humidity
    00:00 +5°C° 0.1 mm 3 mps 715 mmHg 86%
    01:00 +4°C° 0.1 mm 3 mps 715 mmHg 85%
    02:00 +4°C° 0.1 mm 3 mps 715 mmHg 85%
    03:00 +3°C° 0.1 mm 3 mps 714 mmHg 85%
    04:00 +3°C° 0.1 mm 3 mps 715 mmHg 85%
    05:00 +3°C° 0.1 mm 3 mps 715 mmHg 86%
    06:00 +3°C° 0.1 mm 3 mps 715 mmHg 86%
    07:00 +4°C° 0.1 mm 4 mps 716 mmHg 82%
    08:00 +4°C° 0.1 mm 4 mps 716 mmHg 77%
    09:00 +5°C° 0.1 mm 5 mps 717 mmHg 73%
    10:00 +6°C° 0.1 mm 5 mps 717 mmHg 69%
    11:00 +5°C° 0.1 mm 6 mps 716 mmHg 66%
    12:00 +5°C° 0.1 mm 6 mps 716 mmHg 63%
    13:00 +6°C° 0.1 mm 5 mps 716 mmHg 64%
    14:00 +6°C° 0.1 mm 5 mps 716 mmHg 65%
    15:00 +6°C° 0.1 mm 4 mps 716 mmHg 67%
    16:00 +5°C° 0.1 mm 3 mps 716 mmHg 72%
    17:00 +5°C° 0.1 mm 2 mps 716 mmHg 78%
    18:00 +5°C° 0.1 mm 1 mps 716 mmHg 84%
    19:00 +5°C° 0 mm 1 mps 717 mmHg 85%
    20:00 +5°C° 0 mm 1 mps 717 mmHg 87%
    21:00 +4°C° 0 mm 1 mps 717 mmHg 89%
    22:00 +4°C° 0 mm 1 mps 717 mmHg 89%
    23:00 +4°C° 0 mm 1 mps 717 mmHg 90%
    Show more